User: anonymous   Login
Location: Caltech
(34.1382°N, 118.1253°W)
Time: 01:54:24
(UTC-07:00)
Language:

Cosmos 1733 Rocket - Orbit

View from above orbital plane
View from above orbital plane
View from above satellite
View from above satellite

Ground track
Ground track

The orbit data is extracted from the following two-line orbital elements,

1 16612U 86018B   15187.72059654  .00000253  00000-0  27502-4 0  9999
2 16612 082.5163 243.8553 0017310 346.1446 153.3130 14.83945480485934
Epoch (UTC): 06 July 2015 17:17:39
Eccentricity: 0.0017310
inclination: 82.5163°
perigee height: 605 km
apogee height: 629 km
right ascension of ascending node: 243.8553°
argument of perigee: 346.1446°
revolutions per day: 14.83945480
mean anomaly at epoch: 153.3130°
orbit number at epoch: 48593

The dashed part of the orbit path shows where the satellite is in the earth's shadow,  

DLR